Regional Weather Roundup
Issued by NWS Portland, ME

Current Version | Previous Version | Graphics & Text | Print | Product List | Glossary On
Versions: 1 2 3 4 5 6 7 8 9 10 11 12 13 14 15 16 17 18 19 20 21 22 23 24 25 26 27 28 29 30 31 32 33 34 35 36 37 38 39 40 41 42 43 44 45 46 47 48 49 50
000
ASUS41 KGYX 110510
RWRGYX
WEATHER ROUNDUP FOR MAINE AND NEW HAMPSHIRE
NATIONAL WEATHER SERVICE GRAY ME
100 AM EDT FRI JUL 11 2014

MEZ002-005-006-010-012-015-018-020-021-024-026-027-029-110600-
MAINE

CITY           SKY/WX    TMP DP  RH WIND       PRES   REMARKS
PORTLAND       PTCLDY    63  52  67 NW3       30.16R
SANFORD        MOCLDY    55  50  82 CALM      30.17R
BAR HARBOR     PTCLDY    59  55  88 CALM      30.16R
WISCASSET      PTCLDY    58  54  86 CALM      30.18R
ROCKLAND       MOCLDY    63  55  77 N3        30.14S
FRYEBURG       CLEAR     52  50  93 CALM      30.19R
LEWISTONAUBURN CLEAR     57  52  82 CALM      30.18R
AUGUSTA        CLEAR     60  50  69 NW3       30.17S
WATERVILLE     CLEAR     55  50  82 MISG      30.13S
BANGOR         PTCLDY    56  51  84 CALM      30.16S
GREENVILLE       N/A     55  48  77 CALM      30.15F
MILLINOCKET    CLEAR     54  52  93 CALM      30.16S
HOULTON        CLEAR     49  48  97 CALM      30.13R
PRESQUE ISLE   CLEAR     54  46  76 CALM      30.13F
FRENCHVILLE    PTCLDY    55  47  74 CALM      30.12S
CARIBOU        CLEAR     55  50  83 CALM      30.12S
$$

NHZ002-005-008-009-011-012-014-110600-
NEW HAMPSHIRE

CITY           SKY/WX    TMP DP  RH WIND       PRES   REMARKS
PORTSMOUTH     MOCLDY    64  58  80 NW2       30.16R
ROCHESTER      MOCLDY    59  54  83 NW5       30.16S
NASHUA         MOCLDY    64  60  87 NW6       30.17R
MANCHESTER     MOCLDY    66  58  75 NW3       30.15R
CONCORD        PTCLDY    56  55  97 CALM      30.17R
LACONIA        CLEAR     57  52  82 CALM      30.17R
PLYMOUTH       FAIR      53  52  95 CALM      30.19S
BERLIN         CLEAR     48  46  93 CALM      30.21S
WHITEFIELD     CLEAR     49  45  86 CALM      30.21S
JAFFREY        PTCLDY    56  54  93 CALM      30.21R
LEBANON        CLOUDY    57  54  89 CALM      30.20R
MT WASHINGTON  PTCLDY    41  39  93 W23         N/A
$$

VTZ005-007-008-110600-
VERMONT

CITY           SKY/WX    TMP DP  RH WIND       PRES   REMARKS
ST JOHNSBURY     N/A     53  51  93 MISG      30.20R
MONTPELIER     CLEAR     52  48  86 CALM      30.25R
BURLINGTON     CLEAR     58  53  84 E3        30.19S
$$

MAZ007-012-024-CTZ003-RIZ002-NYZ038-NYZ072-110600-
SOUTHERN NEW ENGLAND AND NY

CITY           SKY/WX    TMP DP  RH WIND       PRES   REMARKS
BOSTON         CLOUDY    68  61  78 S7        30.15R
WORCESTER      MOCLDY    69  49  48 N6        30.18S
NANTUCKET      FOG       66  66 100 CALM      30.14F VSB 1/2
PROVIDENCE     CLOUDY    69  62  78 SW3       30.15S
HARTFORD       MOCLDY    66  55  67 NW6       30.15S
ALBANY         MOCLDY    61  54  77 CALM      30.19R
NEW YORK CITY  CLOUDY    75  61  61 E3        30.13F
$$

ANZ081-ANZ082-ANZ150-NHZ014-MEZ023>029-110600-
COASTAL MARINE OBSERVATIONS

STATION/POSITION TIME  TEMP    WIND        PRES    WAVE
                       AIR SEA DIR/SP/G            HT/PER
                 (UTC) (F)     (DEG/KT/KT) (MB)    (FT/S)
MOUNT DESERT ROC 0500   62                 1020.5S
MATINICUS ROCK   0400          360/ 16/ 16 1020.4S
PORTLAND WX BUOY 0500   60 57   10/  6/  6 1021.0R   2/ 8
WELLS            0500   61 48  170/  3/  5 1020.4R
ISLE OF SHOALS   0400   68     230/  5/  5 1020.4R
JEFFREYS LEDGE   0400      66                N/A     2/ 8
CASHES LEDGE BUO 0500   65 62  250/  6/  8 1020.1R   3/ 8
$$

.............KEY..............
   WCI - WIND CHILL
   TC  - TEMPERATURE IN CELSIUS
   VSB - VISIBILITY IN MILES
   HX  - HEAT INDEX
   FAIR- INDICATES FEW OR NO CLOUDS BELOW 12,000 FT, WITH NO
         SIGNIFICANT WEATHER AND/OR OBSTRUCTIONS TO VISIBILITY.





USA.gov is the U.S. government's official web portal to all federal, state and local government web resources and services.